Home   Weather   Dover   Past weeks

Flag for USA Past Weather in Dover, Delaware, USA — Yesterday and Last 2 Weeks

Now
57 °F

Fog.


Feels Like: 56 °F
Forecast: 55 / 63 °F
Wind: 8 mph from North

Location: Dover Air Force Base

Current Time: Apr 26, 2017 at 10:08:03 am

Latest Report: Apr 26, 2017 at 8:58 am


Visibility: 5 mi

Pressure: 29.72 "Hg

Humidity: 100%

Dew Point: 57 °F

Location of DoverLocation

Past Weather in Dover — Graph

°F

Dover Temperature Yesterday

Maximum temperature yesterday: 59 °F (at 1:58 pm)
Minimum temperature yesterday: 54 °F (at 12:37 am)
Average temperature yesterday: 57 °F

High & Low Weather Summary for the Past Weeks

 TemperatureHumidityPressure
High86 °F (Apr 16, 3:58 pm)100% (Apr 12, 5:58 am)30.49 "Hg (Apr 12, 5:58 am)
Low46 °F (Apr 14, 2:58 am)37% (Apr 13, 6:58 pm)29.65 "Hg (Apr 26, 3:18 am)
Average59 °F88%30.06 "Hg
* Reported Apr 11 9:58 am — Apr 26 8:58 am, Dover, Weather by CustomWeather, © 2017

Note: Actual official high and low records may vary slightly from our data, if they occured in-between our weather recording intervals... More about our weather records

Advertising

Dover Weather History for the Previous 24 Hours

Scroll right to see more
 ConditionsComfort  
Time TempWeatherWind HumidityBarometerVisibility
8:58 am
Wed, Apr 26
57 °FFog.8 mph100%29.72 "Hg5 mi
7:55 am57 °FFog.9 mph100%29.71 "Hg3 mi
7:28 am57 °FLight rain. Fog.9 mph100%29.70 "Hg3 mi
6:58 am58 °FFog.7 mph100%29.69 "Hg3 mi
6:43 am57 °FFog.10 mph100%29.68 "Hg5 mi
6:28 am59 °FFog.10 mph100%29.67 "Hg6 mi
6:16 am59 °FFog.12 mph100%29.67 "Hg5 mi
6:03 am59 °FLow clouds.10 mph100%29.66 "Hg2 mi
5:58 am59 °FLow clouds.10 mph100%29.66 "Hg1 mi
5:18 am59 °FFog.13 mph100%29.65 "Hg1 mi
4:58 am59 °FFog.9 mph100%29.65 "Hg1 mi
4:18 am59 °FFog.6 mph100%29.65 "Hg1 mi
3:58 am57 °FFog.9 mph100%29.65 "Hg0 mi
3:33 am57 °FFog.7 mph100%29.65 "Hg1 mi
3:18 am57 °FFog.7 mph100%29.65 "Hg1 mi
3:03 am57 °FFog.8 mph100%29.66 "Hg2 mi
2:38 am57 °FFog.7 mph100%29.67 "Hg5 mi
2:13 am55 °FLow clouds.9 mph100%29.67 "Hg10 mi
1:58 am56 °FLow clouds.10 mph100%29.67 "Hg10 mi
1:31 am55 °FLow clouds.10 mph100%29.67 "Hg10 mi
12:58 am57 °FLight rain. Low clouds.13 mph100%29.69 "Hg6 mi
12:33 am57 °FLight rain. Low clouds.12 mph100%29.69 "Hg6 mi
12:23 am57 °FLight rain. Low clouds.13 mph100%29.69 "Hg4 mi
11:58 pm
Tue, Apr 25
57 °FLight rain. Low clouds.13 mph100%29.69 "Hg4 mi
11:34 pm57 °FLow clouds.15 mph100%29.69 "Hg10 mi
11:13 pm57 °FRain. Low clouds.13 mph100%29.71 "Hg5 mi
10:58 pm57 °FLight rain. Low clouds.15 mph100%29.71 "Hg5 mi
10:32 pm57 °FLight rain. Low clouds.14 mph100%29.72 "Hg4 mi
10:16 pm57 °FLight rain. Low clouds.14 mph100%29.72 "Hg6 mi
10:03 pm57 °FDrizzle. Low clouds.14 mph100%29.73 "Hg7 mi
9:18 pm57 °FLow clouds.14 mph100%29.73 "Hg10 mi
9:03 pm57 °FLight rain. Low clouds.15 mph100%29.72 "Hg10 mi
7:58 pm57 °FLight rain. Low clouds.16 mph100%29.71 "Hg10 mi
7:40 pm57 °FLight rain. Low clouds.17 mph100%29.71 "Hg10 mi
7:18 pm57 °FLow clouds.14 mph100%29.72 "Hg10 mi
6:58 pm57 °FLight rain. Low clouds.17 mph100%29.73 "Hg5 mi
6:44 pm59 °FLight rain. Low clouds.17 mph100%29.73 "Hg1 mi
6:34 pm59 °FLow clouds.17 mph100%29.73 "Hg9 mi
5:58 pm59 °FLow clouds.15 mph100%29.74 "Hg10 mi
4:58 pm59 °FFog.13 mph100%29.75 "Hg3 mi
4:28 pm59 °FLight rain. Low clouds.15 mph100%29.75 "Hg3 mi
3:58 pm59 °FLight rain. Low clouds.16 mph100%29.76 "Hg2 mi
3:33 pm59 °FLight rain. Low clouds.16 mph100%29.76 "Hg3 mi
2:58 pm59 °FLight rain. Low clouds.16 mph100%29.78 "Hg3 mi
2:38 pm59 °FLight rain. Low clouds.12 mph100%29.79 "Hg5 mi
2:18 pm59 °FHeavy rain. Dense fog.24 mph100%29.78 "Hg1 mi
2:03 pm59 °FHeavy rain. Low clouds.16 mph100%29.79 "Hg1 mi
1:58 pm59 °FLight rain. Low clouds.15 mph100%29.79 "Hg5 mi
1:33 pm57 °FLight rain. Low clouds.21 mph100%29.79 "Hg3 mi
1:18 pm57 °FRain. Low clouds.22 mph100%29.80 "Hg2 mi
12:58 pm57 °FLight rain. Low clouds.23 mph100%29.81 "Hg8 mi
12:33 pm57 °FLight rain. Low clouds.18 mph100%29.83 "Hg2 mi
12:18 pm57 °FHeavy rain. Low clouds.16 mph100%29.84 "Hg2 mi
11:58 am57 °FLight rain. Low clouds.18 mph100%29.86 "Hg8 mi
10:58 am57 °FLight rain. Low clouds.20 mph100%29.88 "Hg10 mi
10:28 am55 °FLight rain. Low clouds.17 mph100%29.90 "Hg10 mi
Weather by CustomWeather, © 2017

See weather overviewHow to use our weather pages